Location: Unspecified
(41.5000°N, 0.0000°E)
Time: 21:24:31
(UTC+00:00)

Vanguard 2 - Pass Details

Date: 20 June 2019
Orbit: 553 x 2938 km, 32.9° (Epoch: 19 July)

Event Time Altitude Azimuth Distance (km) Brightness Sun altitude
Rises 15:47:27 0° 269° (W) 5,487 12.8 40.0°
Reaches altitude 10° 15:52:26 10° 252° (WSW) 4,884 12.8 39.1°
Maximum altitude 16:01:00 18° 216° (SW) 4,719 12.2 37.5°
Drops below altitude 10° 16:10:57 10° 180° (S) 5,720 12.1 35.6°
Sets 16:17:47 0° 165° (SSE) 6,773 12.2 34.4°
